Home > Weather > Slough > Past weeks

Flag for United Kingdom Past Weather in Slough, England, United Kingdom — Yesterday and Last 2 Weeks

Now
73 °F

Sunny.


Feels Like: 76 °F
Forecast: 58 / 76 °F
Wind: 3 mph from East

Location: London City Airport

Current Time: Jul 23, 2016 at 10:20:42 AM

Latest Report: Jul 23, 2016 at 9:50 AM


Visibility: 10 mi

Pressure: 30.12 "Hg

Humidity: 65%

Dew Point: 61 °F

Location of SloughLocation

Past Weather in Slough — Graph

°F

Slough Temperature Yesterday

Maximum temperature yesterday: 77 °F (at 1:50 PM)
Minimum temperature yesterday: 66 °F (at 12:50 AM)
Average temperature yesterday: 70 °F

High & Low Weather Summary for the Past Weeks

 TemperatureHumidityPressure
High90 °F (Jul 19, 2:20 PM)94% (Jul 12, 11:20 PM)30.33 "Hg (Jul 12, 11:20 PM)
Low54 °F (Jul 13, 3:20 AM)28% (Jul 18, 1:20 PM)29.68 "Hg (Jul 11, 4:50 AM)
Average68 °F67%30.04 "Hg
* Reported Jul 8 9:20 AM — Jul 23 9:20 AM, Slough, Weather by CustomWeather, © 2016

Note: Actual official high and low records may vary slightly from our data, if they occured in-between our weather recording intervals... More about our weather records

Advertising

Slough Weather History for the Previous 24 Hours

Scroll right to see more
 ConditionsComfort  
Time TempWeatherWind HumidityBarometerVisibility
9:20 AM
Sat, Jul 23
72 °FSunny.3 mph65%30.12 "Hg10 mi
8:50 AM70 °FSunny.3 mph69%30.12 "Hg10 mi
8:20 AM68 °FSunny.3 mph73%30.12 "Hg10 mi
7:50 AM68 °FSunny.2 mph73%30.12 "Hg10 mi
7:20 AM66 °FSunny.No wind78%30.12 "Hg10 mi
6:50 AM64 °FSunny.2 mph83%30.12 "Hg10 mi
6:20 AM63 °FSunny.3 mph88%30.12 "Hg10 mi
5:50 AM63 °FClear.No wind83%30.09 "Hg10 mi
5:20 AM63 °FMild.3 mph88%30.09 "HgN/A
4:50 AM63 °FMild.2 mph83%30.09 "HgN/A
4:20 AM63 °FMild.2 mph88%30.09 "HgN/A
3:50 AM63 °FMild.3 mph88%30.12 "HgN/A
3:20 AM64 °FMild.3 mph83%30.09 "HgN/A
2:50 AM64 °FMild.3 mph83%30.12 "HgN/A
2:20 AM63 °FMild.5 mph88%30.12 "HgN/A
1:50 AM63 °FMild.8 mph88%30.12 "HgN/A
1:20 AM64 °FMild.7 mph83%30.12 "HgN/A
12:50 AM66 °FMild.6 mph78%30.12 "HgN/A
12:20 AM66 °FMild.5 mph73%30.12 "HgN/A
11:50 PM
Fri, Jul 22
66 °FMild.3 mph68%30.12 "HgN/A
11:20 PM66 °FMild.7 mph68%30.12 "HgN/A
10:50 PM66 °FMild.8 mph68%30.12 "HgN/A
10:20 PM68 °FMild.7 mph64%30.12 "HgN/A
9:50 PM70 °FSunny.9 mph64%30.12 "Hg10 mi
9:20 PM70 °FSunny.7 mph64%30.09 "Hg10 mi
8:50 PM72 °FPassing clouds.5 mph65%30.09 "HgN/A
8:20 PM75 °FSunny.3 mph50%30.09 "Hg10 mi
7:20 PM75 °FSunny.6 mph50%30.07 "Hg10 mi
6:50 PM75 °FPassing clouds.5 mph50%30.07 "HgN/A
6:20 PM75 °FSunny.8 mph54%30.07 "Hg10 mi
5:50 PM75 °FPassing clouds.7 mph50%30.07 "HgN/A
5:20 PM73 °FSunny.8 mph57%30.09 "Hg10 mi
4:50 PM73 °FSunny.7 mph57%30.09 "Hg10 mi
4:20 PM77 °FScattered showers. Clear.7 mph51%30.09 "HgN/A
3:50 PM75 °FPassing clouds.5 mph54%30.09 "HgN/A
3:20 PM73 °FPassing clouds.6 mph57%30.07 "HgN/A
2:50 PM73 °FScattered clouds.7 mph57%30.07 "HgN/A
2:20 PM75 °FPassing clouds.6 mph50%30.07 "HgN/A
1:50 PM77 °FSunny.2 mph47%30.07 "Hg10 mi
1:20 PM75 °FPassing clouds.5 mph50%30.07 "HgN/A
12:50 PM73 °FPassing clouds.6 mph53%30.07 "HgN/A
12:20 PM72 °FPassing clouds.6 mph65%30.07 "HgN/A
11:50 AM72 °FPassing clouds.6 mph65%30.07 "HgN/A
11:20 AM70 °FPassing clouds.5 mph69%30.07 "HgN/A
10:50 AM72 °FScattered clouds.6 mph65%30.07 "HgN/A
10:20 AM70 °FScattered clouds.7 mph69%30.07 "HgN/A
Weather by CustomWeather, © 2016

See weather overviewHow to use our weather pages